[[{"header":{"parameterUnit":"m.s-1","parameterCategory":1,"la1":30.2991,"la2":30.254,"lo1":-89.0895,"lo2":-89.0444,"dy":0.0017,"dx":0.0017,"nx":28,"ny":28,"refTime":"2024-12-25T03:00:00:Z","depth":0,"parameterNumber":2,"parameterNumberName":"U-component_of_WINDS"},"data":[0,0,0,0,0,0,0,0,0,0,0,0,0,0,0,0,0,0,0,0,0,0,0,0,0,0,0,0,0,0,0,0,0,0,0,0,0,0,0,0,0,0,0,0,0,0,0,0,0,0,0,0,0,0,0,0,0,0,-7.2875,-7.2876,0,-7.2958,-7.2959,-7.296,-7.2898,-7.2896,-7.2893,-7.289,-7.2975,-7.298,-7.2984,0,0,0,0,0,0,0,0,0,0,0,0,0,-7.2665,-7.2669,-7.2875,-7.2876,-7.2877,-7.2958,-7.2959,-7.296,-7.2899,-7.2896,-7.2892,-7.2889,-7.2973,-7.2979,-7.2985,0,0,0,0,0,0,0,0,0,0,0,0,0,-7.2753,-7.267,-7.2875,-7.2856,-7.2855,-7.2958,-7.2959,-7.2961,-7.29,-7.2895,-7.2891,-7.2888,-7.2972,-7.2978,-7.2985,-7.311,0,0,-7.3007,-7.301,0,0,0,0,0,0,0,0,-7.2748,-7.276,-7.2858,-7.2858,-7.2857,-7.2914,-7.2916,-7.3011,-7.2901,-7.2883,-7.289,-7.2886,-7.2958,-7.2966,-7.299,-7.3114,-7.3118,-7.3008,-7.3012,-7.3015,-7.3017,0,0,0,0,0,0,0,-7.2742,-7.2757,-7.2908,-7.286,-7.2859,-7.2844,-7.2852,-7.2934,-7.2942,-7.2884,-7.288,-7.289,-7.2957,-7.2984,-7.2992,-7.3119,-7.3008,-7.3014,-7.3019,-7.3021,-7.3351,-7.3355,0,0,0,0,0,0,-7.2737,-7.2752,-7.2905,-7.291,-7.2791,-7.2851,-7.286,-7.29,-7.2941,-7.2943,-7.2894,-7.2887,-7.2973,-7.2984,-7.2995,-7.3142,-7.3015,-7.3022,-7.3026,-7.3346,-7.3352,-7.3357,0,0,0,0,0,0,-7.2733,-7.2752,-7.2902,-7.283,-7.2848,-7.2859,-7.2904,-7.2903,-7.293,-7.2948,-7.2949,-7.2919,-7.2971,-7.2984,-7.3082,-7.3144,-7.3025,-7.3032,-7.3341,-7.3348,-7.3354,-7.344,0,0,0,0,0,0,-7.2727,-7.275,-7.2797,-7.2832,-7.2852,-7.2988,-7.2908,-7.2908,-7.2942,-7.2935,-7.2973,-7.2975,-7.2968,-7.3072,-7.3089,-7.3152,-7.3037,-7.3335,-7.3344,-7.3352,-7.3432,-7.3449,-7.3464,0,0,0,0,0,-7.272,-7.2818,-7.28,-7.2819,-7.2911,-7.2992,-7.3003,-7.2994,-7.2948,-7.2995,-7.3008,-7.2974,-7.3136,-7.3082,-7.3102,-7.3167,-7.3331,-7.3342,-7.3351,-7.3424,-7.3445,-7.3463,0,0,0,0,0,0,-7.279,-7.2822,-7.2802,-7.2914,-7.2951,-7.2981,-7.304,-7.3016,-7.3066,-7.3057,-7.3043,-7.3052,-7.3155,-7.3172,-7.3111,-7.3291,-7.3226,-7.3241,-7.3275,-7.3295,-7.3311,-7.3303,-7.3043,0,0,0,0,0,-7.2819,-7.2881,-7.2906,-7.3003,-7.3022,-7.3029,-7.3063,-7.3053,-7.309,-7.3105,-7.3124,-7.3161,-7.3221,-7.326,-7.3315,-7.3436,-7.3442,-7.3491,-7.3507,-7.352,-7.3531,-7.3595,-7.3617,-7.339,-7.339,-7.3389,0,0,-7.2878,-7.2903,-7.2943,-7.3018,-7.3044,-7.3109,-7.3042,-7.3113,-7.3161,-7.3116,-7.3208,-7.3225,-7.3266,-7.3375,-7.3424,-7.3392,-7.3596,-7.3533,-7.3543,-7.3547,-7.3608,-7.3629,-7.3648,-7.3396,-7.3395,-7.3394,0,0,-7.3018,-7.3045,-7.3127,-7.3156,-7.3199,-7.3203,-7.3223,-7.3258,-7.3267,-7.336,-7.3328,-7.3386,-7.3488,-7.3518,-7.3547,-7.3704,-7.3674,-7.3723,-7.3804,-7.3867,-7.3885,-7.3901,-7.3954,-7.3974,-7.3735,-7.3735,-7.3735,0,-7.3085,-7.3182,-7.3173,-7.3247,-7.328,-7.3245,-7.3328,-7.3357,-7.3416,-7.344,-7.3404,-7.3533,-7.3558,-7.3673,-7.3712,-7.3737,-7.3759,-7.3716,-7.3883,-7.3899,-7.3914,-7.3964,-7.3985,-7.374,-7.374,-7.3739,-7.3739,0,-7.3262,-7.333,-7.3392,-7.345,-7.3491,-7.357,-7.3573,-7.3616,-7.3604,-7.3613,-7.3709,-7.3739,-7.3799,-7.3827,-7.3816,-7.3942,-7.3921,-7.3885,-7.3819,-7.3941,-7.3988,-7.4008,-7.3748,-7.3746,-7.3745,-7.3743,0,0,-7.3443,-7.3498,-7.352,-7.3546,-7.3592,-7.3644,-7.3723,-7.3783,-7.382,-7.3863,-7.3927,-7.4017,-7.3984,-7.4017,-7.401,-7.4066,-7.4186,-7.4023,-7.4024,-7.405,-7.4325,-7.4349,-7.4371,-7.4169,-7.4173,-7.4176,-7.4321,0,-7.3584,-7.3719,-7.3715,-7.3841,-7.3903,-7.3872,-7.394,-7.3976,-7.3987,-7.4042,-7.4055,-7.4118,-7.4071,-7.4091,-7.4145,-7.416,-7.424,-7.415,-7.4227,-7.423,-7.4213,-7.4397,-7.4421,-7.4556,-7.4339,-7.4343,-7.4345,0,-7.3764,-7.3813,-7.3945,-7.3983,-7.4009,-7.407,-7.4126,-7.4179,-7.422,-7.4225,-7.4264,-7.4248,-7.4328,-7.4264,-7.4373,-7.4312,-7.4344,-7.4357,-7.4362,-7.4365,-7.4291,-7.4401,-7.4599,-7.4618,-7.4375,-7.4372,-7.437,0,-7.3879,-7.3979,-7.4071,-7.4095,-7.4142,-7.4186,-7.4208,-7.4245,-7.4282,-7.4331,-7.4355,-7.4414,-7.4445,-7.4491,-7.4492,-7.4445,-7.4602,-7.4538,-7.4607,-7.4607,-7.4637,-7.4634,-7.4839,-7.4665,-7.4665,-7.4664,-7.4664,0,-7.4033,-7.4114,-7.4123,-7.4179,-7.427,-7.4267,-7.4357,-7.4375,-7.4409,-7.4468,-7.4447,-7.4503,-7.4503,-7.456,-7.4562,-7.4652,-7.4667,-7.4672,-7.4671,-7.4672,-7.467,-7.4689,-7.4678,-7.467,-7.4668,-7.4667,-7.4666,0,-7.4175,-7.4184,-7.4282,-7.432,-7.4332,-7.4397,-7.4429,-7.4483,-7.4494,-7.457,-7.4587,-7.4604,-7.4671,-7.4678,-7.4756,-7.4758,-7.4865,-7.4856,-7.4851,-7.4848,-7.4914,-7.4907,-7.5135,-7.5164,-7.4975,-7.4977,-7.4978,0,-7.427,-7.4332,-7.4377,-7.4416,-7.444,-7.4502,-7.454,-7.4541,-7.4581,-7.4635,-7.4682,-7.4747,-7.4798,-7.4908,-7.4927,-7.4987,-7.4976,-7.5053,-7.4985,-7.4984,-7.4974,-7.4968,-7.4974,-7.5064,-7.5066,-7.5068,-7.5069,0,-7.4437,-7.444,-7.4495,-7.4554,-7.46,-7.4646,-7.4689,-7.4722,-7.4728,-7.4775,-7.4844,-7.4884,-7.4965,-7.5029,-7.5089,-7.5112,-7.5091,-7.5092,-7.511,-7.5109,-7.5102,-7.5103,-7.4882,-7.5085,-7.5083,-7.5082,-7.5081,-7.5081,-7.4556,-7.461,-7.465,-7.4714,-7.4747,-7.4788,-7.484,-7.4859,-7.4916,-7.4981,-7.498,-7.5055,-7.5097,-7.5174,-7.5202,-7.5261,-7.5236,-7.5263,-7.5269,-7.5275,-7.528,-7.5097,-7.5273,-7.5272,-7.5272,-7.5272,-7.5271,0,-7.472,-7.4745,-7.4804,-7.4865,-7.4915,-7.4895,-7.4942,-7.4985,-7.5052,-7.5093,-7.5145,-7.5224,-7.5288,-7.5314,-7.5376,-7.5418,-7.5411,-7.5434,-7.5429,-7.5434,-7.5301,-7.5277,-7.544,-7.544,-7.544,-7.544,-7.544,-7.5439,-7.481,-7.4899,-7.4907,-7.5013,-7.5039,-7.5112,-7.5141,-7.5179,-7.5212,-7.5301,-7.5354,-7.5372,-7.5407,-7.5472,-7.553,-7.5536,-7.5558,-7.5586,-7.5587,-7.5461,-7.5444,-7.5427,-7.5405,-7.5591,-7.5592,-7.5715,-7.5716,-7.5717]},{"header":{"parameterUnit":"m.s-1","parameterCategory":1,"la1":30.2991,"la2":30.254,"lo1":-89.0895,"lo2":-89.0444,"dy":0.0017,"dx":0.0017,"nx":28,"ny":28,"refTime":"2024-12-25T03:00:00:Z","depth":0,"parameterNumber":3,"parameterNumberName":"V-component_of_WINDS"},"data":[0,0,0,0,0,0,0,0,0,0,0,0,0,0,0,0,0,0,0,0,0,0,0,0,0,0,0,0,0,0,0,0,0,0,0,0,0,0,0,0,0,0,0,0,0,0,0,0,0,0,0,0,0,0,0,0,0,0,1.256,1.2561,0,1.2589,1.2589,1.259,1.2612,1.2612,1.2612,1.2613,1.2639,1.2639,1.264,0,0,0,0,0,0,0,0,0,0,0,0,0,1.2524,1.2525,1.256,1.2561,1.2561,1.2589,1.2589,1.259,1.2612,1.2612,1.2613,1.2613,1.2638,1.2639,1.264,0,0,0,0,0,0,0,0,0,0,0,0,0,1.2545,1.2525,1.256,1.2576,1.2577,1.2589,1.2589,1.259,1.2612,1.2612,1.2613,1.2613,1.2638,1.2639,1.264,1.2637,0,0,1.2642,1.2642,0,0,0,0,0,0,0,0,1.2544,1.2546,1.2573,1.2574,1.2576,1.2597,1.2586,1.2605,1.2612,1.2599,1.2613,1.2613,1.2624,1.2626,1.2631,1.2638,1.264,1.2642,1.2642,1.2643,1.2643,0,0,0,0,0,0,0,1.2542,1.2545,1.2571,1.2573,1.2575,1.2581,1.2584,1.259,1.2609,1.26,1.2601,1.2605,1.2625,1.263,1.2631,1.264,1.2642,1.2643,1.2643,1.2643,1.2651,1.265,0,0,0,0,0,0,1.2539,1.2544,1.2571,1.2572,1.2561,1.2581,1.2585,1.259,1.2609,1.2612,1.2604,1.2606,1.2629,1.2631,1.2632,1.2633,1.2643,1.2643,1.2644,1.2651,1.265,1.265,0,0,0,0,0,0,1.2538,1.2541,1.2569,1.2559,1.2563,1.2582,1.2587,1.2591,1.2595,1.2613,1.2616,1.2606,1.2629,1.2631,1.2637,1.2634,1.2644,1.2644,1.2651,1.2651,1.265,1.2633,0,0,0,0,0,0,1.2537,1.254,1.254,1.2558,1.2563,1.2573,1.2587,1.2591,1.2597,1.2599,1.2615,1.2618,1.2629,1.2636,1.2638,1.2635,1.2645,1.2651,1.2651,1.265,1.2633,1.2632,1.263,0,0,0,0,0,1.2535,1.2532,1.2539,1.2542,1.2563,1.2573,1.2576,1.259,1.2596,1.2596,1.2608,1.2617,1.2634,1.2636,1.2638,1.2636,1.2652,1.2651,1.265,1.2634,1.2632,1.263,0,0,0,0,0,0,1.251,1.2534,1.2543,1.2546,1.2557,1.2577,1.2576,1.2587,1.2596,1.2597,1.2614,1.2618,1.2622,1.2629,1.2631,1.2637,1.2644,1.2644,1.2631,1.2629,1.2628,1.2626,1.2645,0,0,0,0,0,1.2505,1.2512,1.2533,1.2533,1.2539,1.2557,1.2562,1.2573,1.2585,1.2589,1.2601,1.2612,1.2621,1.2625,1.2633,1.2635,1.264,1.2635,1.2633,1.2632,1.2632,1.2636,1.2634,1.2648,1.2648,1.2648,0,0,1.2494,1.2508,1.2511,1.2529,1.2539,1.2546,1.2561,1.2567,1.2572,1.259,1.2597,1.2606,1.262,1.2624,1.2626,1.263,1.2629,1.2631,1.263,1.263,1.2635,1.2634,1.2632,1.2648,1.2648,1.2648,0,0,1.2478,1.2489,1.2492,1.2503,1.252,1.2532,1.2533,1.2552,1.256,1.2567,1.2581,1.2588,1.2601,1.2611,1.2618,1.261,1.262,1.2612,1.2603,1.2607,1.2606,1.2605,1.2604,1.2603,1.2612,1.2612,1.2612,0,1.2462,1.2474,1.2492,1.2499,1.2507,1.2525,1.2529,1.2538,1.2556,1.2561,1.2566,1.2586,1.2596,1.2604,1.2603,1.2607,1.2609,1.261,1.2605,1.2604,1.2603,1.2603,1.2602,1.2611,1.2611,1.2611,1.2611,0,1.2455,1.2463,1.2463,1.2483,1.2491,1.2495,1.2515,1.2521,1.2532,1.2544,1.2552,1.2566,1.2579,1.2581,1.2591,1.2592,1.2594,1.2602,1.261,1.2601,1.26,1.26,1.261,1.261,1.261,1.2611,0,0,1.2421,1.2453,1.2453,1.2463,1.2485,1.2491,1.2498,1.2513,1.2518,1.253,1.2537,1.255,1.2558,1.2566,1.2577,1.258,1.2576,1.2588,1.2588,1.2586,1.258,1.2575,1.2574,1.2583,1.2583,1.2583,1.2579,0,1.2409,1.2423,1.2441,1.2449,1.2458,1.2478,1.2484,1.2498,1.2511,1.252,1.2533,1.2543,1.2552,1.2558,1.2562,1.2575,1.2575,1.2576,1.2589,1.259,1.2586,1.2573,1.2567,1.2563,1.2579,1.2579,1.2579,0,1.2396,1.2411,1.242,1.2444,1.2449,1.2454,1.247,1.2479,1.2496,1.2505,1.2516,1.2529,1.2538,1.2545,1.2559,1.2559,1.2566,1.2574,1.2574,1.2576,1.2584,1.2575,1.2561,1.2561,1.2578,1.2578,1.2579,0,1.2373,1.2394,1.2404,1.2412,1.2439,1.2443,1.2454,1.2472,1.2481,1.2495,1.2501,1.2515,1.2523,1.2534,1.2551,1.2555,1.2563,1.2571,1.2571,1.2571,1.2571,1.2571,1.2559,1.2575,1.2575,1.2575,1.2575,0,1.2358,1.2363,1.2394,1.2399,1.2407,1.2428,1.2435,1.2448,1.2464,1.2473,1.2491,1.2498,1.252,1.2531,1.2544,1.2554,1.2557,1.2565,1.2569,1.2564,1.2563,1.2568,1.2569,1.2575,1.2575,1.2575,1.2575,0,1.2332,1.2353,1.2365,1.2391,1.2398,1.2402,1.2425,1.2432,1.2447,1.2458,1.2462,1.2485,1.2499,1.2517,1.2536,1.2545,1.2554,1.2559,1.2548,1.2551,1.255,1.255,1.2541,1.2542,1.2556,1.2556,1.2556,0,1.2321,1.2327,1.2355,1.2363,1.2375,1.2387,1.2397,1.2419,1.2428,1.2451,1.2455,1.2471,1.2484,1.2506,1.2524,1.2539,1.2545,1.2541,1.2547,1.2543,1.2547,1.2546,1.2548,1.2539,1.2539,1.2539,1.2539,0,1.2301,1.2312,1.2326,1.2345,1.2356,1.2372,1.2388,1.2393,1.2419,1.2428,1.2444,1.2455,1.2477,1.2492,1.2511,1.2522,1.2535,1.2537,1.2538,1.2533,1.2527,1.2532,1.2545,1.2537,1.2537,1.2537,1.2537,1.2537,1.2283,1.229,1.2312,1.2328,1.2343,1.2358,1.2367,1.2384,1.2398,1.2418,1.243,1.2446,1.2466,1.2492,1.2504,1.2516,1.2521,1.2522,1.2522,1.2522,1.2521,1.2526,1.2519,1.252,1.252,1.252,1.252,0,1.2264,1.228,1.2295,1.2318,1.2332,1.2345,1.2364,1.2374,1.2388,1.2406,1.242,1.244,1.2456,1.2477,1.2495,1.2501,1.2507,1.2505,1.2505,1.2508,1.2515,1.2513,1.25,1.25,1.25,1.25,1.25,1.25,1.2256,1.2269,1.2283,1.2304,1.232,1.2337,1.2347,1.2362,1.2377,1.2399,1.2413,1.2427,1.2447,1.2467,1.2483,1.2489,1.2495,1.2491,1.2498,1.2505,1.2507,1.2508,1.2507,1.2492,1.2492,1.249,1.249,1.249]}]]